Miami, FL

11:35 PM EST en Noviembre 14, 2018 (GMT -0500)
Miami International

Tiempo Historia de KMIA - Septiembre, 2018

Change the Weather History Date:

Viernes, Septiembre 14, 2018

  Actual Average Record
Temperature  
Temperatura media 84 ° F 83 ° F  
Temperatura máxima 90 ° F 89 ° F 94 ° F (1987)
Temperatura mínima 77 ° F 77 ° F 67 ° F (1939)
Degree Days  
Grados día de calefacción 0 0  
Month to date heating degree days 0 0  
Since 1 July heating degree days 0 0  
Cooling Degree Days 19 18  
Month to date cooling degree days 244 254  
Year to date cooling degree days 3416 3329  
Growing Degree Days 34 (Base 50)    
Moisture  
Punto de rocío 76 ° F    
Average Humidity 81    
Maximum Humidity 94    
Minimum Humidity 68    
Precipitación  
Precipitación 0.00 pul 0.33 pul 1.79 pul (1993)
Month to date precipitation 4.88 4.49  
Year to date precipitation 52.33 44.89  
Nieve  
Nieve 0.00 pul - - ()
Month to date snowfall 0.0  
Since 1 July snowfall 0.0  
Since 1 September snowfall 0.0  
Grosos de nieve 0.00 pul    
Presión al nivel del mar  
Presión al nivel del mar 29.94 pul    
Viento  
Velocidad del viento 5 mph (Sur)    
Velocidad máxima del viento 14 mph    
Max Gust Speed 20 mph    
Visibilidad 10 Millas    
Eventos Lluvia , Tormenta    
T = Trace of Precipitation, MM = Missing Value Source: NWS Daily Summary

Daily Weather History Graph

Daily Weather History Graph

Search for Another Location

Airport or City:

Astronomía

Sep. 14, 2018 Salida Puesta
Hora real 7:06 AM EDT 7:26 PM EDT
Crepúsculo civil 6:43 AM EDT 7:49 PM EDT
Crepúsculo náutico 6:16 AM EDT 8:16 PM EDT
Crepúsculo astronómico 5:49 AM EDT 8:43 PM EDT
Luna 11:52 AM EDT (9/14) 11:13 PM EDT (9/14)
Horas de luz 13h 05m
Horas de luz
12h 19m
Creciente, 28% of the Moon is Illuminated
Sep 14
Creciente
Sep 16
Cuarto creciente
Sep 24
Luna llena
Oct 2
Cuarto menguante
Oct 8
Nueva

Hourly Weather History & Observations

Hora (EDT) Temp. Índice de calor Punto de rocío Humedad Presión Visibilidad Wind Dir Velocidad del viento Velocidad de ráfagas Precip Eventos Condiciones
12:12 AM 81.0 ° F 87.9 ° F 77.0 ° F 88% 29.99 pul 10.0 mi Sin viento Sin viento - N/A   Nublado
12:53 AM 81.0 ° F 87.3 ° F 75.9 ° F 85% 30.00 pul 10.0 mi NNO 4.6 mph - N/A   Nublado
1:53 AM 78.1 ° F - 75.0 ° F 90% 29.97 pul 10.0 mi Norte 5.8 mph - N/A   Nublado
2:53 AM 78.1 ° F - 75.0 ° F 90% 29.94 pul 10.0 mi Sin viento Sin viento - N/A   Nublado
3:53 AM 78.1 ° F - 75.0 ° F 90% 29.95 pul 10.0 mi Sin viento Sin viento - N/A   Nublado
4:53 AM 79.0 ° F - 75.0 ° F 88% 29.95 pul 10.0 mi Sin viento Sin viento - N/A   Nublado
5:53 AM 78.1 ° F - 75.0 ° F 90% 29.95 pul 10.0 mi Sin viento Sin viento - N/A   Muy nublado
6:53 AM 79.0 ° F - 73.9 ° F 84% 29.96 pul 10.0 mi NE 3.5 mph - N/A   Muy nublado
7:53 AM 80.1 ° F 84.2 ° F 73.0 ° F 79% 29.97 pul 10.0 mi ENE 4.6 mph - N/A   Nubes dispersas
8:53 AM 82.9 ° F 90.2 ° F 75.0 ° F 77% 29.97 pul 10.0 mi Este 3.5 mph - N/A   Nubes dispersas
9:53 AM 86.0 ° F 96.9 ° F 77.0 ° F 74% 29.97 pul 10.0 mi Sur 5.8 mph - N/A   Nubes dispersas
10:53 AM 87.1 ° F 98.8 ° F 77.0 ° F 72% 29.97 pul 10.0 mi SSE 6.9 mph - N/A   Nubes dispersas
11:53 AM 88.0 ° F 98.5 ° F 75.9 ° F 67% 29.96 pul 10.0 mi SE 8.1 mph - N/A   Nubes dispersas
12:53 PM 90.0 ° F 102.5 ° F 77.0 ° F 65% 29.95 pul 10.0 mi ESE 9.2 mph - N/A   Muy nublado
1:00 PM 90.0 ° F 102.5 ° F 77.0 ° F 65% 29.94 pul 10.0 mi ESE 11.5 mph 17.3 mph N/A Tormenta Tormenta
1:53 PM 89.1 ° F 100.2 ° F 75.9 ° F 65% 29.94 pul 10.0 mi SE 12.7 mph - N/A Tormenta Tormenta
2:53 PM 89.1 ° F 99.1 ° F 75.0 ° F 63% 29.91 pul 10.0 mi SO 5.8 mph - N/A Tormenta Tormenta
3:11 PM 87.1 ° F 98.8 ° F 77.0 ° F 72% 29.91 pul 10.0 mi Oeste 8.1 mph - N/A   Muy nublado
3:53 PM 88.0 ° F 98.5 ° F 75.9 ° F 67% 29.89 pul 10.0 mi SSO 9.2 mph - N/A   Muy nublado
4:53 PM 86.0 ° F 96.0 ° F 75.9 ° F 72% 29.89 pul 10.0 mi SSE 9.2 mph - N/A   Muy nublado
5:04 PM 84.9 ° F 94.1 ° F 75.9 ° F 74% 29.89 pul 10.0 mi Sur 10.4 mph - N/A Tormenta Muy nublado
5:21 PM 84.9 ° F 94.1 ° F 75.9 ° F 74% 29.89 pul 10.0 mi Sur 9.2 mph - N/A Tormenta Tormenta
5:53 PM 84.0 ° F 92.6 ° F 75.9 ° F 76% 29.91 pul 10.0 mi SSE 6.9 mph - N/A Tormenta Tormenta
6:09 PM 84.0 ° F 92.6 ° F 75.9 ° F 76% 29.90 pul 10.0 mi Sur 4.6 mph - N/A   Muy nublado
6:53 PM 82.0 ° F 89.4 ° F 75.9 ° F 82% 29.91 pul 10.0 mi OSO 5.8 mph - N/A   Muy nublado
7:53 PM 81.0 ° F 88.6 ° F 78.1 ° F 91% 29.91 pul 10.0 mi OSO 6.9 mph - N/A   Muy nublado
8:53 PM 81.0 ° F 87.3 ° F 75.9 ° F 85% 29.94 pul 10.0 mi Sin viento Sin viento - N/A   Nubes dispersas
9:53 PM 81.0 ° F 87.9 ° F 77.0 ° F 88% 29.94 pul 10.0 mi Sin viento Sin viento - N/A   Muy nublado
10:53 PM 81.0 ° F 87.3 ° F 75.9 ° F 85% 29.95 pul 10.0 mi SSE 3.5 mph - N/A   Nubes dispersas
11:53 PM 81.0 ° F 87.3 ° F 75.9 ° F 85% 29.94 pul 10.0 mi Sin viento Sin viento - N/A   Nubes dispersas